Change the Weather History Date:

Tuesday, May 13, 2014

  Actual Average (KJWG) Record (KJWG)
Temperature  
Mean Temperature 54 °F -  
Max Temperature 66 °F 78 °F 92 °F (1963)
Min Temperature 42 °F 54 °F 35 °F (1971)
Degree Days  
Heating Degree Days 11    
Growing Degree Days 4 (Base 50)    
Moisture  
Dew Point 34 °F    
Average Humidity 47    
Maximum Humidity 76    
Minimum Humidity 28    
Precipitation  
Precipitation 0.00 in - - ()
Sea Level Pressure  
Sea Level Pressure 30.25 in    
Wind  
Wind Speed 14 mph (North)    
Max Wind Speed 22 mph    
Max Gust Speed 31 mph    
Visibility 10 miles    
Events      
Averages and records for this station are not official NWS values.
T = Trace of Precipitation, MM = Missing Value Source: NWS Daily Summary

Daily Weather History Graph

Daily Weather History Graph

Search for Another Location

Airport or City:

Trip Planner

Search our weather history database for the weather conditions in past years. The results will help you decide how hot, cold, wet, or windy it might be!

Date:

Astronomy

May. 13, 2014 Rise Set
Actual Time 6:31 AM CDT 8:31 PM CDT
Civil Twilight 6:03 AM CDT 8:59 PM CDT
Nautical Twilight 5:29 AM CDT 9:33 PM CDT
Astronomical Twilight 4:52 AM CDT 10:10 PM CDT
Moon 7:36 PM CDT (5/13) 5:45 AM CDT (5/13)
Length of Visible Light 14h 55m
Length of Day
13h 59m
Waxing Gibbous, 99% of the Moon is Illuminated
May 13
Waxing Gibbous
May 14
Full
May 21
Last Quarter
May 28
New
Jun 5
First Quarter

Hourly Weather History & Observations

Time (CDT) Temp. Windchill Dew Point Humidity Pressure Visibility Wind Dir Wind Speed Gust Speed Precip Events Conditions
12:15 AM 50.0 °F - 37.4 °F 62% 30.20 in 10.0 mi NNW 17.3 mph 28.8 mph N/A   Overcast
12:35 AM 50.0 °F - 37.4 °F 62% 30.20 in 10.0 mi North 17.3 mph 25.3 mph N/A   Overcast
12:55 AM 50.0 °F - 37.4 °F 62% 30.22 in 10.0 mi North 15.0 mph 23.0 mph N/A   Overcast
1:15 AM 50.0 °F - 35.6 °F 58% 30.22 in 10.0 mi North 18.4 mph 26.5 mph N/A   Overcast
1:35 AM 50.0 °F - 35.6 °F 58% 30.21 in 10.0 mi North 17.3 mph 23.0 mph N/A   Overcast
1:55 AM 50.0 °F - 35.6 °F 58% 30.22 in 10.0 mi North 11.5 mph 25.3 mph N/A   Overcast
2:15 AM 48.2 °F - 35.6 °F 62% 30.22 in 10.0 mi North 18.4 mph 25.3 mph N/A   Mostly Cloudy
2:35 AM 46.4 °F 40.7 °F 35.6 °F 66% 30.23 in 10.0 mi North 12.7 mph - N/A   Scattered Clouds
2:55 AM 46.4 °F 40.7 °F 35.6 °F 66% 30.21 in 10.0 mi North 12.7 mph 17.3 mph N/A   Clear
3:15 AM 46.4 °F 40.4 °F 35.6 °F 66% 30.21 in 10.0 mi North 13.8 mph 17.3 mph N/A   Clear
3:35 AM 46.4 °F 40.1 °F 35.6 °F 66% 30.20 in 10.0 mi North 15.0 mph 21.9 mph N/A   Clear
3:55 AM 46.4 °F 40.4 °F 35.6 °F 66% 30.20 in 10.0 mi North 13.8 mph 20.7 mph N/A   Clear
4:15 AM 46.4 °F 39.8 °F 35.6 °F 66% 30.19 in 10.0 mi North 16.1 mph - N/A   Clear
4:35 AM 46.4 °F 40.4 °F 35.6 °F 66% 30.20 in 10.0 mi North 13.8 mph 19.6 mph N/A   Clear
4:55 AM 44.6 °F 39.2 °F 35.6 °F 71% 30.19 in 10.0 mi North 10.4 mph - N/A   Clear
5:15 AM 44.6 °F 38.8 °F 35.6 °F 71% 30.19 in 10.0 mi North 11.5 mph - N/A   Clear
5:35 AM 44.6 °F 39.7 °F 35.6 °F 71% 30.20 in 10.0 mi NNW 9.2 mph - N/A   Clear
5:55 AM 42.8 °F 37.0 °F 35.6 °F 76% 30.20 in 10.0 mi NNW 10.4 mph - N/A   Clear
6:15 AM 42.8 °F 37.5 °F 35.6 °F 76% 30.20 in 10.0 mi NNW 9.2 mph - N/A   Clear
6:35 AM 42.8 °F 38.6 °F 35.6 °F 76% 30.19 in 10.0 mi North 6.9 mph - N/A   Clear
6:55 AM 42.8 °F 38.0 °F 35.6 °F 76% 30.20 in 10.0 mi NW 8.1 mph - N/A   Clear
8:15 AM 44.6 °F 38.4 °F 35.6 °F 71% 30.25 in 10.0 mi NNW 12.7 mph 20.7 mph N/A   Clear
8:35 AM 46.4 °F 41.1 °F 35.6 °F 66% 30.26 in 10.0 mi NNW 11.5 mph - N/A   Clear
8:55 AM 50.0 °F - 35.6 °F 58% 30.26 in 10.0 mi NNW 12.7 mph - N/A   Clear
9:15 AM 50.0 °F - 33.8 °F 54% 30.27 in 10.0 mi North 16.1 mph - N/A   Clear
10:55 AM 57.2 °F - 33.8 °F 41% 30.30 in 10.0 mi North 18.4 mph 29.9 mph N/A   Clear
11:35 AM 59.0 °F - 33.8 °F 39% 30.30 in 10.0 mi North 18.4 mph 24.2 mph N/A   Clear
11:55 AM 59.0 °F - 33.8 °F 39% 30.30 in 10.0 mi North 18.4 mph 23.0 mph N/A   Clear
12:15 PM 60.8 °F - 33.8 °F 36% 30.30 in 10.0 mi North 20.7 mph 27.6 mph N/A   Clear
12:35 PM 60.8 °F - 33.8 °F 36% 30.30 in 10.0 mi North 13.8 mph 25.3 mph N/A   Clear
12:55 PM 60.8 °F - 33.8 °F 36% 30.29 in 10.0 mi NNE 19.6 mph 25.3 mph N/A   Clear
1:15 PM 62.6 °F - 33.8 °F 34% 30.29 in 10.0 mi North 12.7 mph 27.6 mph N/A   Clear
1:35 PM 62.6 °F - 33.8 °F 34% 30.28 in 10.0 mi North 18.4 mph 21.9 mph N/A   Clear
1:55 PM 64.4 °F - 32.0 °F 30% 30.28 in 10.0 mi NNW 18.4 mph 26.5 mph N/A   Clear
2:15 PM 64.4 °F - 32.0 °F 30% 30.26 in 10.0 mi NNW 18.4 mph 27.6 mph N/A   Clear
2:35 PM 64.4 °F - 32.0 °F 30% 30.26 in 10.0 mi North 17.3 mph 23.0 mph N/A   Clear
2:55 PM 66.2 °F - 32.0 °F 28% 30.26 in 10.0 mi North 21.9 mph 27.6 mph N/A   Clear
3:15 PM 66.2 °F - 32.0 °F 28% 30.25 in 10.0 mi North 19.6 mph 25.3 mph N/A   Clear
3:35 PM 64.4 °F - 32.0 °F 30% 30.24 in 10.0 mi North 13.8 mph 31.1 mph N/A   Clear
3:55 PM 66.2 °F - 32.0 °F 28% 30.24 in 10.0 mi North 16.1 mph 23.0 mph N/A   Clear
4:15 PM 64.4 °F - 32.0 °F 30% 30.23 in 10.0 mi North 17.3 mph 27.6 mph N/A   Clear
4:35 PM 64.4 °F - 30.2 °F 28% 30.23 in 10.0 mi North 20.7 mph 27.6 mph N/A   Clear
4:55 PM 62.6 °F - 30.2 °F 30% 30.24 in 10.0 mi North 12.7 mph 21.9 mph N/A   Clear
5:15 PM 62.6 °F - 32.0 °F 32% 30.24 in 10.0 mi North 15.0 mph 21.9 mph N/A   Clear
5:35 PM 62.6 °F - 30.2 °F 30% 30.25 in 10.0 mi NNE 13.8 mph - N/A   Clear
5:55 PM 62.6 °F - 32.0 °F 32% 30.25 in 10.0 mi North 13.8 mph 18.4 mph N/A   Clear
6:15 PM 62.6 °F - 32.0 °F 32% 30.25 in 10.0 mi NNE 15.0 mph 19.6 mph N/A   Clear
6:35 PM 62.6 °F - 32.0 °F 32% 30.25 in 10.0 mi NNE 12.7 mph - N/A   Clear
6:55 PM 62.6 °F - 32.0 °F 32% 30.24 in 10.0 mi North 10.4 mph - N/A   Clear
7:15 PM 64.4 °F - 32.0 °F 30% 30.24 in 10.0 mi NNE 12.7 mph 19.6 mph N/A   Clear
7:35 PM 62.6 °F - 32.0 °F 32% 30.24 in 10.0 mi NNE 13.8 mph 17.3 mph N/A   Clear
7:55 PM 62.6 °F - 30.2 °F 30% 30.25 in 10.0 mi NNE 10.4 mph 16.1 mph N/A   Clear
8:15 PM 60.8 °F - 32.0 °F 34% 30.25 in 10.0 mi North 11.5 mph - N/A   Clear
8:35 PM 59.0 °F - 32.0 °F 36% 30.26 in 10.0 mi North 8.1 mph - N/A   Clear
8:55 PM 59.0 °F - 32.0 °F 36% 30.27 in 10.0 mi North 6.9 mph - N/A   Clear
9:15 PM 57.2 °F - 32.0 °F 38% 30.27 in 10.0 mi North 8.1 mph - N/A   Clear
9:35 PM 55.4 °F - 32.0 °F 41% 30.28 in 10.0 mi North 4.6 mph - N/A   Clear
9:55 PM 53.6 °F - 32.0 °F 44% 30.28 in 10.0 mi North 4.6 mph - N/A   Clear
10:15 PM 53.6 °F - 32.0 °F 44% 30.29 in 10.0 mi NNW 4.6 mph - N/A   Clear
10:35 PM 51.8 °F - 32.0 °F 47% 30.30 in 10.0 mi NW 4.6 mph - N/A   Clear
10:55 PM 51.8 °F - 32.0 °F 47% 30.30 in 10.0 mi NNW 5.8 mph - N/A   Clear
11:15 PM 51.8 °F - 32.0 °F 47% 30.31 in 10.0 mi NW 5.8 mph - N/A   Clear
11:35 PM 50.0 °F - 32.0 °F 50% 30.31 in 10.0 mi NW 5.8 mph - N/A   Clear
11:55 PM 50.0 °F - 32.0 °F 50% 30.30 in 10.0 mi NNW 5.8 mph - N/A   Clear